Regional Weather Roundup
Issued by NWS

Home | Current Version | Previous Version | Text Only | Print | Product List | Glossary On
Versions: 1 2 3 4 5 6 7 8 9 10 11 12 13 14 15 16 17 18 19 20 21 22 23 24 25 26 27 28 29 30 31 32 33 34 35 36 37 38 39 40 41 42 43 44 45 46 47 48 49 50
000
ASUS44 KMEG 020210
RWRTN
TENNESSEE HOURLY STATE WEATHER ROUNDUP
NATIONAL WEATHER SERVICE MEMPHIS TN
900 PM CDT MON SEP 01 2014

TNZ002-004-019-021-049-052-054-088>092-020300-
WEST TENNESSEE

CITY           SKY/WX    TMP DP  RH WIND       PRES   REMARKS
MEMPHIS INTL   CLEAR     84  72  67 S9        29.97S
NWS MEMPHIS      N/A     83 N/A N/A MISG        N/A
JACKSON        CLEAR     78  72  81 S3        29.98S
DYERSBURG      CLEAR     79  64  61 CALM      29.96S
UNION CITY     CLEAR     75  72  88 S6        29.95R
PARIS          CLEAR     73  70  88 SE5       29.99S
HUNTINGDON     CLEAR     76  70  82 CALM      29.99R
LEXINGTON      CLEAR     79  70  73 S5        29.99F
SAVANNAH       CLEAR     73  73 100 CALM      30.02S
$$

TNZ008-025-027-028-033-062-065-066-020300-
NORTH MIDDLE TENNESSEE

CITY           SKY/WX    TMP DP  RH WIND       PRES   REMARKS
NASHVILLE      PTCLDY    80  68  66 S3        30.03R
DICKSON        CLEAR     77  70  78 S3        30.02R
PORTLAND       PTCLDY    77  70  78 S5        30.03R
CLARKSVILLE    CLEAR     78  70  76 S3        30.00R
LEBANON        CLEAR     77  68  73 CALM      30.02R
SMYRNA         CLEAR     78  69  73 CALM      30.04R
MURFREESBORO   CLEAR     82  68  62 S5        30.03R
COOKEVILLE     CLEAR     73  70  88 S3        30.07R
LIVINGSTON     PTCLDY    77  68  73 SW5       30.08R
GALLATIN       CLEAR     79  73  81 CALM      30.04R
CROSSVILLE     PTCLDY    75  69  81 CALM      30.13R
$$

TNZ061-075-076-078-094-096-097-020300-
SOUTH MIDDLE TENNESSEE

CITY           SKY/WX    TMP DP  RH WIND       PRES   REMARKS
LEWISBURG      CLEAR     74  69  84 CALM      30.04R
FAYETTEVILLE   CLEAR     75  68  78 S3        30.07S
TULLAHOMA      CLEAR     75  68  78 CALM      30.09R
WINCHESTER     CLEAR     75  72  88 CALM      30.08R
MCMINNVILLE    CLEAR     75  72  88 CALM      30.08R
COLUMBIA         N/A     75  73  94 CALM      30.03R
SHELBYVILLE    CLEAR     79  72  78 CALM      30.06R
$$

TNZ017-018-042-046-047-020300-
NORTHEAST TENNESSEE

CITY           SKY/WX    TMP DP  RH WIND       PRES   REMARKS
TRI CITIES     PTCLDY    74  69  85 CALM      30.11R
ELIZABETHTON   CLEAR     70  64  83 CALM      30.13R
$$

TNZ012-013-036-069-073-074-020300-
CENTRAL EAST TENNESSEE

CITY           SKY/WX    TMP DP  RH WIND       PRES   REMARKS
KNOXVILLE      PTCLDY    78  70  76 SW6       30.07R
OAK RIDGE      PTCLDY    80  72  76 CALM      30.09R
GATLINBURG     CLEAR     75  70  83 CALM      30.08R
MORRISTOWN     CLEAR     79  70  73 CALM      30.11R
$$

TNZ083-085-099-020300-
SOUTHEAST TENNESSEE

CITY           SKY/WX    TMP DP  RH WIND       PRES   REMARKS
CHATTANOOGA    PTCLDY    83  70  64 S6        30.08R
$$

SKY/WX REPORTED AS FAIR MEANS FEW OR NO CLOUDS BELOW
12 THOUSAND FEET.




USA.gov is the U.S. government's official web portal to all federal, state and local government web resources and services.